When you browse on this site, cookies collect data to enhance your experience and personalize the content and advertising you see.
Visit our Privacy Policy to learn more. By continuing to use the site, you agree to this use of cookies and data.
  • In Hungary
  • List of Countries
  • For 7 days
  • Water Temperature
  • Weather Map
  • News
  • Weather Widgets
  • user-avatar
    Login

    Hourly Weather Razlatnyy

    Today, 25 February, Tuesday

    Time Temperature Precipitation Wind Pressure Humidity
    00:00 +2°C° 1 mm 10 mps 734 mmHg 93%
    01:00 +1°C° 0.7 mm 9 mps 734 mmHg 93%
    02:00 0°C° 0.7 mm 9 mps 733 mmHg 94%
    03:00 0°C° 0 mm 10 mps 733 mmHg 94%
    04:00 -2°C° 0.1 mm 10 mps 733 mmHg 92%
    05:00 -2°C° 0.1 mm 10 mps 734 mmHg 89%
    06:00 -2°C° 0.1 mm 10 mps 734 mmHg 87%
    07:00 -3°C° 0.4 mm 11 mps 735 mmHg 90%
    08:00 -3°C° 0.4 mm 11 mps 736 mmHg 93%
    09:00 -3°C° 0 mm 11 mps 737 mmHg 95%
    10:00 -3°C° 0.2 mm 12 mps 738 mmHg 91%
    11:00 -3°C° 0.2 mm 12 mps 739 mmHg 87%
    12:00 -2°C° 0.2 mm 12 mps 741 mmHg 83%
    13:00 -2°C° 0 mm 12 mps 742 mmHg 77%
    14:00 -1°C° 0 mm 11 mps 743 mmHg 72%
    15:00 -1°C° 0 mm 11 mps 744 mmHg 66%
    16:00 -2°C° 0 mm 10 mps 745 mmHg 68%
    17:00 -1°C° 0 mm 8 mps 745 mmHg 69%
    18:00 -2°C° 0 mm 7 mps 746 mmHg 71%
    19:00 -2°C° 0 mm 7 mps 747 mmHg 73%
    20:00 -2°C° 0 mm 6 mps 747 mmHg 76%
    21:00 -3°C° 0 mm 6 mps 748 mmHg 78%
    22:00 -2°C° 0 mm 5 mps 748 mmHg 79%
    23:00 -2°C° 0 mm 5 mps 748 mmHg 80%

    Tomorrow, 26 February, Wednesday

    Time Temperature Precipitation Wind Pressure Humidity
    00:00 -2°C° 0 mm 4 mps 748 mmHg 82%
    01:00 -2°C° 0 mm 4 mps 748 mmHg 83%
    02:00 -2°C° 0 mm 4 mps 749 mmHg 85%
    03:00 -2°C° 0 mm 4 mps 749 mmHg 86%
    04:00 -2°C° 0 mm 4 mps 749 mmHg 87%
    05:00 -2°C° 0 mm 4 mps 749 mmHg 89%
    06:00 -2°C° 0 mm 4 mps 749 mmHg 90%
    07:00 -1°C° 0 mm 5 mps 749 mmHg 88%
    08:00 -1°C° 0 mm 5 mps 749 mmHg 86%
    09:00 -1°C° 0 mm 6 mps 749 mmHg 84%
    10:00 +1°C° 0 mm 6 mps 749 mmHg 79%
    11:00 +2°C° 0 mm 6 mps 748 mmHg 75%
    12:00 +3°C° 0 mm 6 mps 748 mmHg 70%
    13:00 +4°C° 0 mm 6 mps 748 mmHg 68%
    14:00 +5°C° 0 mm 6 mps 748 mmHg 66%
    15:00 +5°C° 0 mm 6 mps 747 mmHg 64%
    16:00 +5°C° 0 mm 5 mps 747 mmHg 68%
    17:00 +3°C° 0 mm 5 mps 747 mmHg 72%
    18:00 +3°C° 0 mm 4 mps 747 mmHg 75%
    19:00 +3°C° 0 mm 4 mps 747 mmHg 72%
    20:00 +3°C° 0 mm 4 mps 747 mmHg 68%
    21:00 +2°C° 0 mm 5 mps 747 mmHg 64%
    22:00 +2°C° 0 mm 5 mps 746 mmHg 64%
    23:00 +1°C° 0 mm 4 mps 746 mmHg 65%

    Day after tomorrow, 27 February, Thursday

    Time Temperature Precipitation Wind Pressure Humidity
    00:00 +1°C° 0 mm 4 mps 746 mmHg 65%
    01:00 +1°C° 0 mm 4 mps 746 mmHg 67%
    02:00 +1°C° 0 mm 5 mps 746 mmHg 70%
    03:00 0°C° 0 mm 5 mps 745 mmHg 72%
    04:00 0°C° 0 mm 5 mps 745 mmHg 70%
    05:00 0°C° 0 mm 5 mps 745 mmHg 69%
    06:00 0°C° 0 mm 5 mps 745 mmHg 67%
    07:00 +1°C° 0 mm 5 mps 744 mmHg 65%
    08:00 +2°C° 0 mm 5 mps 744 mmHg 64%
    09:00 +2°C° 0 mm 6 mps 744 mmHg 62%
    10:00 +4°C° 0 mm 6 mps 744 mmHg 60%
    11:00 +5°C° 0 mm 6 mps 744 mmHg 57%
    12:00 +8°C° 0 mm 6 mps 743 mmHg 54%
    13:00 +9°C° 0 mm 7 mps 743 mmHg 51%
    14:00 +11°C° 0 mm 7 mps 743 mmHg 48%
    15:00 +12°C° 0 mm 8 mps 743 mmHg 44%
    16:00 +11°C° 0 mm 7 mps 742 mmHg 50%
    17:00 +10°C° 0 mm 6 mps 742 mmHg 55%
    18:00 +9°C° 0 mm 6 mps 742 mmHg 61%
    19:00 +9°C° 0 mm 6 mps 742 mmHg 65%
    20:00 +8°C° 0 mm 6 mps 742 mmHg 70%
    21:00 +8°C° 0 mm 5 mps 743 mmHg 74%
    22:00 +7°C° 0 mm 5 mps 742 mmHg 77%
    23:00 +7°C° 0 mm 5 mps 742 mmHg 79%

    28 February, Friday

    Time Temperature Precipitation Wind Pressure Humidity
    00:00 +6°C° 0 mm 4 mps 742 mmHg 82%
    01:00 +6°C° 0 mm 4 mps 742 mmHg 81%
    02:00 +6°C° 0 mm 4 mps 742 mmHg 81%
    03:00 +6°C° 0 mm 4 mps 741 mmHg 80%
    04:00 +6°C° 0 mm 4 mps 741 mmHg 76%
    05:00 +7°C° 0 mm 4 mps 741 mmHg 72%
    06:00 +7°C° 0 mm 5 mps 741 mmHg 68%
    07:00 +8°C° 0 mm 5 mps 741 mmHg 67%
    08:00 +8°C° 0 mm 5 mps 741 mmHg 66%
    09:00 +8°C° 0 mm 5 mps 740 mmHg 65%
    10:00 +8°C° 0 mm 5 mps 740 mmHg 69%
    11:00 +8°C° 0 mm 5 mps 740 mmHg 72%
    12:00 +9°C° 0 mm 5 mps 740 mmHg 75%
    13:00 +9°C° 0 mm 6 mps 740 mmHg 75%
    14:00 +9°C° 0 mm 6 mps 740 mmHg 75%
    15:00 +9°C° 0 mm 7 mps 740 mmHg 75%
    16:00 +8°C° 0 mm 6 mps 741 mmHg 76%
    17:00 +7°C° 0 mm 5 mps 741 mmHg 76%
    18:00 +6°C° 0 mm 5 mps 741 mmHg 76%
    19:00 +6°C° 0.1 mm 5 mps 742 mmHg 80%
    20:00 +4°C° 0.1 mm 6 mps 743 mmHg 83%
    21:00 +3°C° 0.1 mm 6 mps 744 mmHg 87%
    22:00 +3°C° 0.3 mm 6 mps 744 mmHg 83%
    23:00 +3°C° 0.3 mm 6 mps 745 mmHg 79%

    29 February, Saturday

    Time Temperature Precipitation Wind Pressure Humidity
    00:00 +2°C° 0.3 mm 6 mps 745 mmHg 75%
    01:00 +2°C° 0 mm 5 mps 745 mmHg 75%
    02:00 +1°C° 0 mm 4 mps 746 mmHg 76%
    03:00 +2°C° 0 mm 3 mps 746 mmHg 77%
    04:00 +1°C° 0 mm 3 mps 746 mmHg 79%
    05:00 +2°C° 0 mm 2 mps 746 mmHg 81%
    06:00 +1°C° 0 mm 2 mps 746 mmHg 83%
    07:00 +2°C° 0 mm 1 mps 746 mmHg 81%
    08:00 +3°C° 0 mm 1 mps 746 mmHg 78%
    09:00 +4°C° 0 mm 1 mps 746 mmHg 76%
    10:00 +4°C° 0 mm 1 mps 746 mmHg 72%
    11:00 +5°C° 0 mm 1 mps 746 mmHg 68%
    12:00 +6°C° 0 mm 1 mps 746 mmHg 64%
    13:00 +6°C° 0 mm 1 mps 745 mmHg 61%
    14:00 +7°C° 0 mm 1 mps 745 mmHg 58%
    15:00 +7°C° 0 mm 1 mps 745 mmHg 54%
    16:00 +6°C° 0 mm 2 mps 745 mmHg 59%
    17:00 +5°C° 0 mm 2 mps 745 mmHg 64%
    18:00 +4°C° 0 mm 2 mps 745 mmHg 69%
    19:00 +3°C° 0 mm 3 mps 745 mmHg 70%
    20:00 +2°C° 0 mm 3 mps 745 mmHg 72%
    21:00 +2°C° 0 mm 3 mps 745 mmHg 73%
    22:00 +1°C° 0 mm 3 mps 745 mmHg 74%
    23:00 +1°C° 0 mm 3 mps 745 mmHg 75%

    1 March, Sunday

    Time Temperature Precipitation Wind Pressure Humidity
    00:00 +1°C° 0 mm 3 mps 746 mmHg 76%
    01:00 +1°C° 0.1 mm 3 mps 746 mmHg 78%
    02:00 0°C° 0.1 mm 4 mps 746 mmHg 81%
    03:00 0°C° 0.1 mm 4 mps 746 mmHg 83%
    04:00 0°C° 0.2 mm 4 mps 746 mmHg 87%
    05:00 0°C° 0.2 mm 5 mps 746 mmHg 90%
    06:00 0°C° 0.2 mm 5 mps 747 mmHg 93%
    07:00 0°C° 0.1 mm 5 mps 747 mmHg 93%
    08:00 0°C° 0.1 mm 4 mps 747 mmHg 94%
    09:00 0°C° 0.1 mm 4 mps 748 mmHg 94%
    10:00 +2°C° 0.1 mm 3 mps 748 mmHg 88%
    11:00 +3°C° 0.1 mm 3 mps 748 mmHg 81%
    12:00 +5°C° 0.1 mm 2 mps 748 mmHg 75%
    13:00 +6°C° 0.1 mm 2 mps 749 mmHg 72%
    14:00 +7°C° 0.1 mm 1 mps 749 mmHg 68%
    15:00 +7°C° 0.1 mm 1 mps 749 mmHg 65%
    16:00 +7°C° 0.2 mm 1 mps 749 mmHg 72%
    17:00 +6°C° 0.2 mm 1 mps 750 mmHg 79%
    18:00 +5°C° 0.2 mm 1 mps 750 mmHg 86%
    19:00 +5°C° 0.1 mm 1 mps 750 mmHg 88%
    20:00 +5°C° 0.1 mm 1 mps 751 mmHg 89%
    21:00 +4°C° 0.1 mm 1 mps 751 mmHg 91%
    22:00 +4°C° 0 mm 1 mps 752 mmHg 91%
    23:00 +3°C° 0 mm 1 mps 752 mmHg 92%
    Show more